Location: Ariel
(45.9570°N, 122.5700°W)
Time: 07:14:15
(UTC-08:00)

Transit 4A - Pass Details

Date: 31 October 2020
Orbit: 862 x 982 km, 66.8° (Epoch: 03 December)

Event Time Altitude Azimuth Distance (km) Brightness Sun altitude
Rises 21:01:29 0° 323° (NW) 3,690 11.7 -32.4°
Reaches altitude 10° 21:05:46 10° 349° (N) 2,745 10.6 -33.2°
Enters shadow 21:07:59 13° 10° (N) 2,524 10.2 -33.5°
